Time,TemperatureF,DewpointF,PressureIn,WindDirection,WindDirectionDegrees,WindSpeedMPH,WindSpeedGustMPH,Humidity,HourlyPrecipIn,Conditions,Clouds,dailyrainin,SoftwareType,DateUTC
2013-03-04 00:00:00,22.9,18.0,29.95,SW,233,0.0,0.0,81,0.00,,OVC038,0.01,VWS V14.01,2013-03-04 05:00:00,
2013-03-04 00:01:00,22.9,18.0,29.95,SW,233,0.0,0.0,81,0.00,,OVC038,0.01,VWS V14.01,2013-03-04 05:01:00,
2013-03-04 00:02:00,22.7,17.8,29.95,SW,233,0.0,0.0,81,0.00,,OVC038,0.01,VWS V14.01,2013-03-04 05:02:00,
2013-03-04 00:05:00,22.7,17.8,29.95,SW,233,0.0,0.0,81,0.00,,OVC042,0.00,VWS V14.01,2013-03-04 05:05:00,
2013-03-04 00:10:00,22.5,17.6,29.95,SW,233,0.0,0.0,81,0.00,,OVC042,0.00,VWS V14.01,2013-03-04 05:10:00,
2013-03-04 00:16:00,22.4,17.5,29.95,SW,233,0.0,0.0,81,0.00,,OVC042,0.00,VWS V14.01,2013-03-04 05:16:00,
2013-03-04 00:21:00,22.2,17.3,29.95,SW,233,0.0,0.0,81,0.00,,OVC042,0.00,VWS V14.01,2013-03-04 05:21:00,
2013-03-04 00:26:00,22.1,17.2,29.95,SW,233,0.0,0.0,81,0.00,,OVC042,0.00,VWS V14.01,2013-03-04 05:26:00,
2013-03-04 00:31:00,21.8,16.9,29.95,SW,233,0.0,0.0,81,0.00,,OVC042,0.00,VWS V14.01,2013-03-04 05:31:00,
2013-03-04 00:37:00,21.6,16.7,29.95,SW,233,0.0,0.0,81,0.00,,OVC042,0.00,VWS V14.01,2013-03-04 05:37:00,
2013-03-04 00:42:00,21.4,16.8,29.95,SW,233,0.0,0.0,82,0.00,,OVC042,0.00,VWS V14.01,2013-03-04 05:42:00,
2013-03-04 00:47:00,21.4,16.8,29.95,SW,233,0.0,0.0,82,0.00,,OVC042,0.00,VWS V14.01,2013-03-04 05:47:00,
2013-03-04 00:52:00,21.1,16.5,29.95,SW,233,0.0,0.0,82,0.00,,OVC042,0.00,VWS V14.01,2013-03-04 05:52:00,
2013-03-04 00:58:00,21.0,16.4,29.95,SW,233,0.0,0.0,82,0.00,,OVC042,0.00,VWS V14.01,2013-03-04 05:58:00,
2013-03-04 01:04:00,20.6,16.0,29.95,SW,233,0.0,0.0,82,0.00,,OVC040,0.00,VWS V14.01,2013-03-04 06:04:00,
2013-03-04 01:09:00,20.5,15.9,29.95,SW,233,0.0,0.0,82,0.00,,OVC040,0.00,VWS V14.01,2013-03-04 06:09:00,
2013-03-04 01:15:00,20.2,15.6,29.95,SW,233,0.0,0.0,82,0.00,,OVC040,0.00,VWS V14.01,2013-03-04 06:15:00,
2013-03-04 01:20:00,20.0,15.7,29.96,SW,233,0.0,0.0,83,0.00,,OVC040,0.00,VWS V14.01,2013-03-04 06:20:00,
2013-03-04 01:25:00,19.9,15.6,29.96,SW,233,0.0,0.0,83,0.00,,OVC040,0.00,VWS V14.01,2013-03-04 06:25:00,
2013-03-04 01:30:00,19.5,15.2,29.96,SW,233,0.0,0.0,83,0.00,,OVC040,0.00,VWS V14.01,2013-03-04 06:30:00,
2013-03-04 01:36:00,19.2,14.9,29.96,SW,233,0.0,0.0,83,0.00,,OVC040,0.00,VWS V14.01,2013-03-04 06:36:00,
2013-03-04 01:41:00,18.9,14.6,29.96,SW,233,0.0,0.0,83,0.00,,OVC040,0.00,VWS V14.01,2013-03-04 06:41:00,
2013-03-04 01:46:00,18.6,14.6,29.96,SW,233,0.0,0.0,84,0.00,,OVC040,0.00,VWS V14.01,2013-03-04 06:46:00,
2013-03-04 01:51:00,18.6,14.6,29.97,SW,233,0.0,0.0,84,0.00,,OVC040,0.00,VWS V14.01,2013-03-04 06:51:00,
2013-03-04 01:57:00,18.3,14.3,29.97,SW,233,0.0,0.0,84,0.00,,OVC040,0.00,VWS V14.01,2013-03-04 06:57:00,
2013-03-04 02:02:00,18.0,14.0,29.97,SW,233,0.0,0.0,84,0.00,,OVC040,0.00,VWS V14.01,2013-03-04 07:02:00,
2013-03-04 02:07:00,17.8,13.8,29.97,SW,233,0.0,0.0,84,0.00,,OVC040,0.00,VWS V14.01,2013-03-04 07:07:00,
2013-03-04 02:12:00,17.5,13.5,29.97,SW,233,0.0,0.0,84,0.00,,OVC040,0.00,VWS V14.01,2013-03-04 07:12:00,
2013-03-04 02:18:00,17.2,13.2,29.98,SW,233,0.0,0.0,84,0.00,,OVC040,0.00,VWS V14.01,2013-03-04 07:18:00,
2013-03-04 02:24:00,16.9,12.9,29.98,SW,233,0.0,0.0,84,0.00,,OVC040,0.00,VWS V14.01,2013-03-04 07:24:00,
2013-03-04 02:29:00,16.7,13.0,29.98,SW,233,0.0,0.0,85,0.00,,OVC040,0.00,VWS V14.01,2013-03-04 07:29:00,
2013-03-04 02:34:00,16.7,13.0,29.98,SW,233,0.0,0.0,85,0.00,,OVC040,0.00,VWS V14.01,2013-03-04 07:34:00,
2013-03-04 02:39:00,16.7,13.0,29.98,SW,233,0.0,0.0,85,0.00,,OVC040,0.00,VWS V14.01,2013-03-04 07:39:00,
2013-03-04 02:44:00,16.5,12.8,29.98,SW,233,0.0,0.0,85,0.00,,OVC040,0.00,VWS V14.01,2013-03-04 07:44:00,
2013-03-04 02:49:00,16.2,12.5,29.98,SW,233,0.0,0.0,85,0.00,,OVC040,0.00,VWS V14.01,2013-03-04 07:49:00,
2013-03-04 02:55:00,16.1,12.4,29.98,SW,233,0.0,0.0,85,0.00,,OVC040,0.00,VWS V14.01,2013-03-04 07:55:00,
2013-03-04 03:00:00,15.7,12.0,29.98,SW,233,0.0,0.0,85,0.00,,OVC040,0.00,VWS V14.01,2013-03-04 08:00:00,
2013-03-04 03:05:00,15.6,11.9,29.98,SW,233,0.0,0.0,85,0.00,,OVC036,0.00,VWS V14.01,2013-03-04 08:05:00,
2013-03-04 03:10:00,15.4,11.7,29.98,SW,233,0.0,0.0,85,0.00,,OVC036,0.00,VWS V14.01,2013-03-04 08:10:00,
2013-03-04 03:16:00,15.1,11.4,29.98,SW,233,0.0,0.0,85,0.00,,OVC036,0.00,VWS V14.01,2013-03-04 08:16:00,
2013-03-04 03:21:00,14.9,11.2,29.97,SW,233,0.0,0.0,85,0.00,,OVC036,0.00,VWS V14.01,2013-03-04 08:21:00,
2013-03-04 03:26:00,14.6,10.9,29.97,SW,233,0.0,0.0,85,0.00,,OVC036,0.00,VWS V14.01,2013-03-04 08:26:00,
2013-03-04 03:31:00,14.4,10.7,29.97,SW,233,0.0,0.0,85,0.00,,OVC036,0.00,VWS V14.01,2013-03-04 08:31:00,
2013-03-04 03:37:00,14.1,10.4,29.97,SW,233,0.0,0.0,85,0.00,,OVC036,0.00,VWS V14.01,2013-03-04 08:37:00,
2013-03-04 03:42:00,14.0,10.3,29.97,SW,233,0.0,0.0,85,0.00,,OVC036,0.00,VWS V14.01,2013-03-04 08:42:00,
2013-03-04 03:47:00,13.8,10.1,29.97,SW,233,0.0,0.0,85,0.00,,OVC036,0.00,VWS V14.01,2013-03-04 08:47:00,
2013-03-04 03:52:00,13.6,9.9,29.97,SW,233,0.0,0.0,85,0.00,,OVC036,0.00,VWS V14.01,2013-03-04 08:52:00,
2013-03-04 03:58:00,13.5,9.8,29.97,SW,233,0.0,0.0,85,0.00,,OVC036,0.00,VWS V14.01,2013-03-04 08:58:00,
2013-03-04 04:04:00,13.5,9.8,29.97,SW,233,0.0,0.0,85,0.00,,CLR,0.00,VWS V14.01,2013-03-04 09:04:00,
2013-03-04 04:09:00,13.6,9.9,29.97,SW,233,0.0,0.0,85,0.00,,CLR,0.00,VWS V14.01,2013-03-04 09:09:00,
2013-03-04 04:15:00,13.6,9.9,29.97,SW,233,0.0,0.0,85,0.00,,CLR,0.00,VWS V14.01,2013-03-04 09:15:00,
2013-03-04 04:20:00,13.3,9.6,29.97,SW,233,0.0,0.0,85,0.00,,CLR,0.00,VWS V14.01,2013-03-04 09:20:00,
2013-03-04 04:25:00,13.1,9.4,29.97,SW,233,0.0,0.0,85,0.00,,CLR,0.00,VWS V14.01,2013-03-04 09:25:00,
2013-03-04 04:30:00,12.9,9.2,29.97,SW,233,0.0,0.0,85,0.00,,CLR,0.00,VWS V14.01,2013-03-04 09:30:00,
2013-03-04 04:36:00,12.6,9.0,29.97,SW,233,0.0,0.0,85,0.00,,CLR,0.00,VWS V14.01,2013-03-04 09:36:00,
2013-03-04 04:41:00,12.4,8.8,29.97,SW,233,0.0,0.0,85,0.00,,CLR,0.00,VWS V14.01,2013-03-04 09:41:00,
2013-03-04 04:47:00,12.4,8.8,29.97,SW,233,0.0,0.0,85,0.00,,CLR,0.00,VWS V14.01,2013-03-04 09:47:00,
2013-03-04 04:52:00,12.3,8.7,29.97,SW,233,0.0,0.0,85,0.00,,CLR,0.00,VWS V14.01,2013-03-04 09:52:00,
2013-03-04 04:58:00,12.3,8.7,29.97,SW,233,0.0,0.0,85,0.00,,CLR,0.00,VWS V14.01,2013-03-04 09:58:00,
2013-03-04 05:04:00,12.1,8.5,29.98,SW,233,0.0,0.0,85,0.00,,,0.00,VWS V14.01,2013-03-04 10:04:00,
2013-03-04 05:09:00,11.9,8.3,29.98,SW,233,0.0,0.0,85,0.00,,,0.00,VWS V14.01,2013-03-04 10:09:00,
2013-03-04 05:15:00,11.6,8.0,29.98,SW,233,0.0,0.0,85,0.00,,,0.00,VWS V14.01,2013-03-04 10:15:00,
2013-03-04 05:20:00,11.4,7.8,29.98,SW,233,0.0,0.0,85,0.00,,,0.00,VWS V14.01,2013-03-04 10:20:00,
2013-03-04 05:26:00,11.2,7.6,29.98,SW,233,0.0,0.0,85,0.00,,,0.00,VWS V14.01,2013-03-04 10:26:00,
2013-03-04 05:31:00,11.1,7.2,29.98,SW,233,0.0,0.0,84,0.00,,,0.00,VWS V14.01,2013-03-04 10:31:00,
2013-03-04 05:36:00,11.1,7.5,29.99,SW,233,0.0,0.0,85,0.00,,,0.00,VWS V14.01,2013-03-04 10:36:00,
2013-03-04 05:41:00,11.1,7.5,29.99,SW,233,0.0,0.0,85,0.00,,,0.00,VWS V14.01,2013-03-04 10:41:00,
2013-03-04 05:47:00,10.9,7.3,30.00,SW,233,0.0,0.0,85,0.00,,,0.00,VWS V14.01,2013-03-04 10:47:00,
2013-03-04 05:52:00,10.9,7.3,30.00,SW,233,0.0,0.0,85,0.00,,,0.00,VWS V14.01,2013-03-04 10:52:00,
2013-03-04 05:58:00,10.9,7.0,30.00,SW,233,0.0,0.0,84,0.00,,,0.00,VWS V14.01,2013-03-04 10:58:00,
2013-03-04 06:04:00,10.7,6.8,30.00,SW,233,0.0,0.0,84,0.00,,,0.00,VWS V14.01,2013-03-04 11:04:00,
2013-03-04 06:09:00,10.5,6.6,30.00,SW,233,0.0,0.0,84,0.00,,,0.00,VWS V14.01,2013-03-04 11:09:00,
2013-03-04 06:15:00,10.4,6.5,30.00,SW,233,0.0,0.0,84,0.00,,,0.00,VWS V14.01,2013-03-04 11:15:00,
2013-03-04 06:20:00,10.2,6.3,30.02,SW,233,0.0,0.0,84,0.00,,,0.00,VWS V14.01,2013-03-04 11:20:00,
2013-03-04 06:26:00,10.0,6.1,30.02,SW,233,0.0,0.0,84,0.00,,,0.00,VWS V14.01,2013-03-04 11:26:00,
2013-03-04 06:31:00,10.0,6.1,30.02,SW,233,0.0,0.0,84,0.00,,,0.00,VWS V14.01,2013-03-04 11:31:00,
2013-03-04 06:36:00,10.0,6.1,30.02,SW,233,0.0,0.0,84,0.00,,,0.00,VWS V14.01,2013-03-04 11:36:00,
2013-03-04 06:41:00,9.9,6.0,30.02,SW,233,0.0,0.0,84,0.00,,,0.00,VWS V14.01,2013-03-04 11:41:00,
2013-03-04 06:46:00,9.9,6.0,30.02,SW,233,0.0,0.0,84,0.00,,,0.00,VWS V14.01,2013-03-04 11:46:00,
2013-03-04 06:51:00,9.9,6.0,30.02,SW,233,0.0,0.0,84,0.00,,,0.00,VWS V14.01,2013-03-04 11:51:00,
2013-03-04 06:57:00,9.9,6.0,30.02,SW,233,0.0,0.0,84,0.00,,,0.00,VWS V14.01,2013-03-04 11:57:00,
2013-03-04 07:02:00,9.9,6.0,30.03,SW,233,0.0,0.0,84,0.00,,,0.00,VWS V14.01,2013-03-04 12:02:00,
2013-03-04 07:07:00,9.7,5.8,30.03,SW,233,0.0,0.0,84,0.00,,CLR,0.00,VWS V14.01,2013-03-04 12:07:00,
2013-03-04 07:12:00,9.7,5.8,30.03,SW,233,0.0,0.0,84,0.00,,CLR,0.00,VWS V14.01,2013-03-04 12:12:00,
2013-03-04 07:18:00,9.7,5.8,30.03,SW,233,0.0,0.0,84,0.00,,CLR,0.00,VWS V14.01,2013-03-04 12:18:00,
2013-03-04 07:24:00,9.7,5.8,30.03,SW,233,0.0,0.0,84,0.00,,CLR,0.00,VWS V14.01,2013-03-04 12:24:00,
2013-03-04 07:29:00,9.7,5.8,30.03,SW,233,0.0,0.0,84,0.00,,CLR,0.00,VWS V14.01,2013-03-04 12:29:00,
2013-03-04 07:34:00,9.9,6.0,30.04,SW,233,0.0,0.0,84,0.00,,CLR,0.00,VWS V14.01,2013-03-04 12:34:00,
2013-03-04 07:39:00,10.0,6.1,30.04,SW,233,0.0,0.0,84,0.00,,CLR,0.00,VWS V14.01,2013-03-04 12:39:00,
2013-03-04 07:45:00,10.9,7.3,30.04,SW,233,0.0,0.0,85,0.00,,CLR,0.00,VWS V14.01,2013-03-04 12:45:00,
2013-03-04 07:50:00,12.3,8.9,30.04,SW,233,0.0,0.0,86,0.00,,CLR,0.00,VWS V14.01,2013-03-04 12:50:00,
2013-03-04 07:55:00,13.8,10.6,30.04,SW,233,0.0,0.0,87,0.00,,CLR,0.00,VWS V14.01,2013-03-04 12:55:00,
2013-03-04 08:00:00,15.4,12.2,30.04,SW,233,0.0,0.0,87,0.00,,CLR,0.00,VWS V14.01,2013-03-04 13:00:00,
2013-03-04 08:05:00,16.5,13.3,30.04,SW,233,0.0,0.0,87,0.00,,CLR,0.00,VWS V14.01,2013-03-04 13:05:00,
2013-03-04 08:10:00,17.2,14.0,30.04,SW,233,0.0,0.0,87,0.00,,CLR,0.00,VWS V14.01,2013-03-04 13:10:00,
2013-03-04 08:16:00,17.8,14.3,30.04,SW,233,0.0,0.0,86,0.00,,CLR,0.00,VWS V14.01,2013-03-04 13:16:00,
2013-03-04 08:21:00,18.4,14.9,30.04,SW,233,0.0,0.0,86,0.00,,CLR,0.00,VWS V14.01,2013-03-04 13:21:00,
2013-03-04 08:26:00,19.1,15.3,30.04,SW,233,0.0,0.0,85,0.00,,CLR,0.00,VWS V14.01,2013-03-04 13:26:00,
2013-03-04 08:31:00,19.5,15.5,30.04,SW,233,0.0,0.0,84,0.00,,CLR,0.00,VWS V14.01,2013-03-04 13:31:00,
2013-03-04 08:36:00,20.5,16.4,30.04,SW,233,0.0,0.0,84,0.00,,CLR,0.00,VWS V14.01,2013-03-04 13:36:00,
2013-03-04 08:41:00,21.6,17.2,30.04,SW,233,0.0,0.0,83,0.00,,CLR,0.00,VWS V14.01,2013-03-04 13:41:00,
2013-03-04 08:47:00,22.5,17.9,30.04,SW,233,0.0,0.0,82,0.00,,CLR,0.00,VWS V14.01,2013-03-04 13:47:00,
2013-03-04 08:52:00,23.6,18.6,30.04,SW,233,0.0,0.0,81,0.00,,CLR,0.00,VWS V14.01,2013-03-04 13:52:00,
2013-03-04 08:57:00,24.7,19.1,30.04,SW,233,0.0,0.0,79,0.00,,CLR,0.00,VWS V14.01,2013-03-04 13:57:00,
2013-03-04 09:02:00,25.3,19.1,30.04,SW,233,0.0,0.0,77,0.00,,CLR,0.00,VWS V14.01,2013-03-04 14:02:00,
2013-03-04 09:07:00,25.8,19.3,30.04,SW,233,2.0,2.0,76,0.00,,CLR,0.00,VWS V14.01,2013-03-04 14:07:00,
2013-03-04 09:12:00,26.1,19.3,30.04,SW,233,0.0,3.0,75,0.00,,CLR,0.00,VWS V14.01,2013-03-04 14:12:00,
2013-03-04 09:18:00,27.0,20.5,30.05,SW,233,0.0,3.0,76,0.00,,CLR,0.00,VWS V14.01,2013-03-04 14:18:00,
2013-03-04 09:24:00,27.3,19.8,30.05,SSW,207,0.0,4.0,73,0.00,,CLR,0.00,VWS V14.01,2013-03-04 14:24:00,
2013-03-04 09:29:00,27.3,18.8,30.05,SSW,207,0.0,4.0,70,0.00,,CLR,0.00,VWS V14.01,2013-03-04 14:29:00,
2013-03-04 09:34:00,27.2,19.1,30.05,SSW,207,0.0,4.0,71,0.00,,CLR,0.00,VWS V14.01,2013-03-04 14:34:00,
2013-03-04 09:39:00,27.0,18.5,30.05,WSW,257,0.0,4.0,70,0.00,,CLR,0.00,VWS V14.01,2013-03-04 14:39:00,
2013-03-04 09:45:00,27.0,18.9,30.05,SW,225,0.0,4.0,71,0.00,,CLR,0.00,VWS V14.01,2013-03-04 14:45:00,
2013-03-04 09:50:00,27.0,18.5,30.05,SW,214,1.0,4.0,70,0.00,,CLR,0.00,VWS V14.01,2013-03-04 14:50:00,
2013-03-04 09:55:00,27.5,19.0,30.05,SW,214,0.0,4.0,70,0.00,,CLR,0.00,VWS V14.01,2013-03-04 14:55:00,
2013-03-04 10:00:00,27.8,19.3,30.05,SW,214,0.0,4.0,70,0.00,,CLR,0.00,VWS V14.01,2013-03-04 15:00:00,
2013-03-04 10:05:00,28.5,19.6,30.05,SW,214,0.0,1.0,69,0.00,,CLR,0.00,VWS V14.01,2013-03-04 15:05:00,
2013-03-04 10:10:00,29.5,20.6,30.05,SW,214,0.0,1.0,69,0.00,,CLR,0.00,VWS V14.01,2013-03-04 15:10:00,
2013-03-04 10:16:00,30.1,20.1,30.05,SW,233,2.0,5.0,66,0.00,,CLR,0.00,VWS V14.01,2013-03-04 15:16:00,
2013-03-04 10:21:00,29.3,19.0,30.05,SW,233,0.0,6.0,65,0.00,,CLR,0.00,VWS V14.01,2013-03-04 15:21:00,
2013-03-04 10:27:00,29.4,19.1,30.05,SW,232,2.0,6.0,65,0.01,,CLR,0.01,VWS V14.01,2013-03-04 15:27:00,
2013-03-04 10:32:00,29.5,19.2,30.05,SW,233,0.0,6.0,65,0.01,,CLR,0.01,VWS V14.01,2013-03-04 15:32:00,
2013-03-04 10:37:00,29.4,18.4,30.05,SW,234,2.0,5.0,63,0.01,,CLR,0.01,VWS V14.01,2013-03-04 15:37:00,
2013-03-04 10:42:00,29.4,19.1,30.05,SW,225,0.0,5.0,65,0.01,,CLR,0.01,VWS V14.01,2013-03-04 15:42:00,
2013-03-04 10:48:00,29.7,18.3,30.05,SW,221,2.0,6.0,62,0.01,,CLR,0.01,VWS V14.01,2013-03-04 15:48:00,
2013-03-04 10:54:00,29.8,18.4,30.05,SW,235,0.0,6.0,62,0.01,,CLR,0.01,VWS V14.01,2013-03-04 15:54:00,
2013-03-04 10:59:00,30.1,19.0,30.05,SW,219,2.0,6.0,63,0.01,,CLR,0.01,VWS V14.01,2013-03-04 15:59:00,
2013-03-04 11:04:00,29.8,18.4,30.05,SW,223,4.0,8.0,62,0.01,,CLR,0.01,VWS V14.01,2013-03-04 16:04:00,
2013-03-04 11:09:00,29.7,18.3,30.05,SW,221,0.0,7.0,62,0.01,,CLR,0.01,VWS V14.01,2013-03-04 16:09:00,
2013-03-04 11:15:00,30.0,18.6,30.05,WSW,242,3.0,7.0,62,0.01,,CLR,0.01,VWS V14.01,2013-03-04 16:15:00,
2013-03-04 11:20:00,30.0,19.0,30.05,SSW,202,2.0,8.0,63,0.01,,CLR,0.01,VWS V14.01,2013-03-04 16:20:00,
2013-03-04 11:26:00,31.0,20.6,30.05,SW,232,0.0,8.0,65,0.01,,CLR,0.01,VWS V14.01,2013-03-04 16:26:00,
2013-03-04 11:31:00,31.2,19.7,30.05,WSW,241,0.0,8.0,62,0.01,,CLR,0.01,VWS V14.01,2013-03-04 16:31:00,
2013-03-04 11:36:00,31.5,18.8,30.04,West,277,3.0,7.0,59,0.00,,CLR,0.01,VWS V14.01,2013-03-04 16:36:00,
2013-03-04 11:41:00,31.6,18.5,30.04,West,269,0.0,7.0,58,0.00,,CLR,0.01,VWS V14.01,2013-03-04 16:41:00,
2013-03-04 11:47:00,31.8,19.9,30.04,SW,218,1.0,7.0,61,0.00,,CLR,0.01,VWS V14.01,2013-03-04 16:47:00,
2013-03-04 11:52:00,31.8,19.9,30.04,WSW,256,2.0,7.0,61,0.00,,CLR,0.01,VWS V14.01,2013-03-04 16:52:00,
2013-03-04 11:57:00,31.9,18.8,30.04,SSW,207,5.0,7.0,58,0.00,,CLR,0.01,VWS V14.01,2013-03-04 16:57:00,
2013-03-04 12:02:00,31.8,19.5,30.04,WSW,257,1.0,9.0,60,0.00,,CLR,0.01,VWS V14.01,2013-03-04 17:02:00,
2013-03-04 12:08:00,32.4,20.1,30.04,WSW,255,0.0,4.0,60,0.00,,CLR,0.01,VWS V14.01,2013-03-04 17:08:00,
2013-03-04 12:14:00,32.4,19.3,30.04,West,280,0.0,6.0,58,0.00,,CLR,0.01,VWS V14.01,2013-03-04 17:14:00,
2013-03-04 12:19:00,32.5,19.8,30.03,West,280,1.0,6.0,59,0.00,,CLR,0.01,VWS V14.01,2013-03-04 17:19:00,
2013-03-04 12:25:00,32.5,20.6,30.03,West,280,0.0,6.0,61,0.00,,CLR,0.01,VWS V14.01,2013-03-04 17:25:00,
2013-03-04 12:30:00,32.8,18.4,30.03,WSW,248,6.0,6.0,55,0.00,,CLR,0.01,VWS V14.01,2013-03-04 17:30:00,
2013-03-04 12:35:00,32.5,19.0,30.03,SW,223,5.0,5.0,57,0.00,,CLR,0.01,VWS V14.01,2013-03-04 17:35:00,
2013-03-04 12:40:00,32.8,20.1,30.03,WSW,237,0.0,5.0,59,0.00,,CLR,0.01,VWS V14.01,2013-03-04 17:40:00,
2013-03-04 12:46:00,32.9,18.5,30.03,SW,219,2.0,5.0,55,0.00,,CLR,0.01,VWS V14.01,2013-03-04 17:46:00,
2013-03-04 12:51:00,32.4,18.0,30.03,SSW,208,0.0,6.0,55,0.00,,CLR,0.01,VWS V14.01,2013-03-04 17:51:00,
2013-03-04 12:56:00,33.1,20.4,30.03,SSW,208,0.0,6.0,59,0.00,,CLR,0.01,VWS V14.01,2013-03-04 17:56:00,
2013-03-04 13:01:00,34.0,20.8,30.03,SW,215,0.0,6.0,58,0.00,,CLR,0.01,VWS V14.01,2013-03-04 18:01:00,
2013-03-04 13:07:00,34.0,19.1,30.02,SW,227,1.0,4.0,54,0.00,,CLR,0.01,VWS V14.01,2013-03-04 18:07:00,
2013-03-04 13:12:00,33.7,19.3,30.02,SW,216,2.0,6.0,55,0.00,,CLR,0.01,VWS V14.01,2013-03-04 18:12:00,
2013-03-04 13:17:00,34.0,18.2,30.01,South,173,4.0,6.0,52,0.00,,CLR,0.01,VWS V14.01,2013-03-04 18:17:00,
2013-03-04 13:22:00,33.5,17.3,30.01,WSW,238,3.0,6.0,51,0.00,,CLR,0.01,VWS V14.01,2013-03-04 18:22:00,
2013-03-04 13:28:00,34.1,20.1,30.01,WSW,256,0.0,6.0,56,0.00,,CLR,0.01,VWS V14.01,2013-03-04 18:28:00,
2013-03-04 13:29:00,34.3,19.8,30.01,WSW,256,0.0,6.0,55,0.00,,CLR,0.01,VWS V14.01,2013-03-04 18:29:00,
2013-03-04 13:30:00,34.3,19.8,30.01,WSW,244,2.0,6.0,55,0.00,,CLR,0.01,VWS V14.01,2013-03-04 18:30:00,
2013-03-04 13:32:00,34.3,19.0,30.01,WSW,244,3.0,6.0,53,0.00,,CLR,0.01,VWS V14.01,2013-03-04 18:32:00,
2013-03-04 13:38:00,34.4,19.9,30.01,WSW,244,0.0,4.0,55,0.00,,CLR,0.01,VWS V14.01,2013-03-04 18:38:00,
2013-03-04 13:44:00,35.0,21.7,30.01,SW,221,0.0,4.0,58,0.00,,CLR,0.01,VWS V14.01,2013-03-04 18:44:00,
2013-03-04 13:49:00,35.2,19.4,30.00,SSW,211,0.0,5.0,52,0.00,,CLR,0.01,VWS V14.01,2013-03-04 18:49:00,
2013-03-04 13:55:00,35.0,20.0,30.00,SSW,211,0.0,5.0,54,0.00,,CLR,0.01,VWS V14.01,2013-03-04 18:55:00,
2013-03-04 14:00:00,34.7,18.9,30.00,WSW,242,1.0,8.0,52,0.00,,CLR,0.01,VWS V14.01,2013-03-04 19:00:00,
2013-03-04 14:01:00,34.9,20.0,30.00,WSW,242,1.0,8.0,54,0.00,,CLR,0.01,VWS V14.01,2013-03-04 19:01:00,
2013-03-04 14:06:00,35.0,18.7,30.00,SW,233,2.0,5.0,51,0.00,,CLR,0.01,VWS V14.01,2013-03-04 19:06:00,
2013-03-04 14:11:00,35.3,21.2,30.00,SW,227,0.0,5.0,56,0.00,,CLR,0.01,VWS V14.01,2013-03-04 19:11:00,
2013-03-04 14:17:00,36.0,20.5,30.00,SW,223,2.0,5.0,53,0.00,,CLR,0.01,VWS V14.01,2013-03-04 19:17:00,
2013-03-04 14:22:00,36.6,21.5,30.00,SW,219,0.0,5.0,54,0.00,,CLR,0.01,VWS V14.01,2013-03-04 19:22:00,
2013-03-04 14:27:00,36.6,19.7,30.00,SW,216,2.0,6.0,50,0.00,,CLR,0.01,VWS V14.01,2013-03-04 19:27:00,
2013-03-04 14:32:00,36.5,19.6,30.00,SW,231,0.0,6.0,50,0.00,,CLR,0.01,VWS V14.01,2013-03-04 19:32:00,
2013-03-04 14:37:00,36.6,21.1,30.00,SW,231,0.0,3.0,53,0.00,,CLR,0.01,VWS V14.01,2013-03-04 19:37:00,
2013-03-04 14:42:00,36.5,20.1,30.00,SSW,209,0.0,3.0,51,0.00,,CLR,0.01,VWS V14.01,2013-03-04 19:42:00,
2013-03-04 14:48:00,36.9,23.1,30.00,SSW,209,0.0,3.0,57,0.00,,CLR,0.01,VWS V14.01,2013-03-04 19:48:00,
2013-03-04 14:54:00,37.5,22.4,30.00,SW,232,0.0,3.0,54,0.00,,CLR,0.01,VWS V14.01,2013-03-04 19:54:00,
2013-03-04 14:59:00,37.8,23.1,30.00,SW,232,0.0,3.0,55,0.00,,CLR,0.01,VWS V14.01,2013-03-04 19:59:00,
2013-03-04 15:05:00,37.8,20.4,30.00,SW,219,3.0,3.0,49,0.00,,CLR,0.01,VWS V14.01,2013-03-04 20:05:00,
2013-03-04 15:10:00,37.3,21.8,30.00,SW,227,1.0,5.0,53,0.00,,CLR,0.01,VWS V14.01,2013-03-04 20:10:00,
2013-03-04 15:16:00,37.0,21.0,30.00,SW,227,1.0,5.0,52,0.00,,CLR,0.01,VWS V14.01,2013-03-04 20:16:00,
2013-03-04 15:21:00,36.9,20.9,29.99,SW,227,0.0,5.0,52,0.00,,CLR,0.01,VWS V14.01,2013-03-04 20:21:00,
2013-03-04 15:26:00,36.8,19.9,29.99,SW,227,0.0,5.0,50,0.00,,CLR,0.01,VWS V14.01,2013-03-04 20:26:00,
2013-03-04 15:31:00,36.6,20.6,29.99,SW,220,1.0,5.0,52,0.00,,CLR,0.01,VWS V14.01,2013-03-04 20:31:00,
2013-03-04 15:36:00,36.6,19.7,29.99,SW,221,1.0,4.0,50,0.00,,CLR,0.01,VWS V14.01,2013-03-04 20:36:00,
2013-03-04 15:41:00,36.2,19.8,29.99,SW,221,0.0,4.0,51,0.00,,CLR,0.01,VWS V14.01,2013-03-04 20:41:00,
2013-03-04 15:47:00,36.0,19.2,29.99,SW,215,0.0,8.0,50,0.00,,CLR,0.01,VWS V14.01,2013-03-04 20:47:00,
2013-03-04 15:52:00,35.8,20.4,29.99,SW,221,1.0,8.0,53,0.00,,CLR,0.01,VWS V14.01,2013-03-04 20:52:00,
2013-03-04 15:58:00,36.3,20.8,29.99,SW,221,0.0,8.0,53,0.00,,CLR,0.01,VWS V14.01,2013-03-04 20:58:00,
2013-03-04 16:04:00,36.8,22.2,29.99,SW,221,0.0,8.0,55,0.00,,CLR,0.01,VWS V14.01,2013-03-04 21:04:00,
2013-03-04 16:09:00,37.3,20.4,29.99,SW,221,0.0,2.0,50,0.00,,CLR,0.01,VWS V14.01,2013-03-04 21:09:00,
2013-03-04 16:15:00,37.8,19.9,29.99,SW,221,0.0,2.0,48,0.00,,CLR,0.01,VWS V14.01,2013-03-04 21:15:00,
2013-03-04 16:20:00,37.6,20.2,29.99,SW,221,0.0,3.0,49,0.00,,CLR,0.01,VWS V14.01,2013-03-04 21:20:00,
2013-03-04 16:25:00,37.6,20.2,29.99,SW,221,0.0,3.0,49,0.00,,CLR,0.01,VWS V14.01,2013-03-04 21:25:00,
2013-03-04 16:30:00,37.5,21.9,29.99,SW,221,0.0,3.0,53,0.00,,CLR,0.01,VWS V14.01,2013-03-04 21:30:00,
2013-03-04 16:35:00,37.5,20.6,29.99,SW,221,0.0,0.0,50,0.00,,CLR,0.01,VWS V14.01,2013-03-04 21:35:00,
2013-03-04 16:40:00,37.6,19.7,29.99,SW,221,2.0,4.0,48,0.00,,CLR,0.01,VWS V14.01,2013-03-04 21:40:00,
2013-03-04 16:46:00,36.9,20.0,29.99,SW,221,2.0,4.0,50,0.00,,CLR,0.01,VWS V14.01,2013-03-04 21:46:00,
2013-03-04 16:51:00,36.8,20.4,29.99,SW,223,1.0,4.0,51,0.00,,CLR,0.01,VWS V14.01,2013-03-04 21:51:00,
2013-03-04 16:57:00,36.5,19.6,29.99,SW,232,0.0,4.0,50,0.00,,CLR,0.01,VWS V14.01,2013-03-04 21:57:00,
2013-03-04 17:02:00,36.3,19.5,29.99,SW,232,0.0,4.0,50,0.00,,CLR,0.01,VWS V14.01,2013-03-04 22:02:00,
2013-03-04 17:07:00,36.6,20.6,29.99,SW,232,0.0,0.0,52,0.00,,CLR,0.01,VWS V14.01,2013-03-04 22:07:00,
2013-03-04 17:12:00,36.8,20.4,29.99,SW,232,0.0,0.0,51,0.00,,CLR,0.01,VWS V14.01,2013-03-04 22:12:00,
2013-03-04 17:18:00,36.8,20.4,29.99,SW,232,0.0,1.0,51,0.00,,CLR,0.01,VWS V14.01,2013-03-04 22:18:00,
2013-03-04 17:24:00,36.6,19.7,29.99,SW,232,1.0,2.0,50,0.00,,CLR,0.01,VWS V14.01,2013-03-04 22:24:00,
2013-03-04 17:29:00,36.3,19.0,29.99,SW,232,0.0,2.0,49,0.00,,CLR,0.01,VWS V14.01,2013-03-04 22:29:00,
2013-03-04 17:34:00,36.0,19.6,29.99,SW,232,0.0,2.0,51,0.00,,CLR,0.01,VWS V14.01,2013-03-04 22:34:00,
2013-03-04 17:39:00,35.6,21.9,29.99,SW,232,0.0,1.0,57,0.00,,CLR,0.01,VWS V14.01,2013-03-04 22:39:00,
2013-03-04 17:45:00,34.7,19.8,29.99,SW,232,0.0,1.0,54,0.00,,CLR,0.01,VWS V14.01,2013-03-04 22:45:00,
2013-03-04 17:50:00,34.1,20.5,29.99,SW,232,0.0,1.0,57,0.00,,CLR,0.01,VWS V14.01,2013-03-04 22:50:00,
2013-03-04 17:56:00,33.5,20.3,29.99,SW,232,0.0,1.0,58,0.00,,CLR,0.01,VWS V14.01,2013-03-04 22:56:00,
2013-03-04 18:01:00,33.2,20.0,29.99,SW,232,0.0,1.0,58,0.00,,CLR,0.01,VWS V14.01,2013-03-04 23:01:00,
2013-03-04 18:06:00,32.9,19.8,29.99,SW,232,0.0,0.0,58,0.00,,CLR,0.01,VWS V14.01,2013-03-04 23:06:00,
2013-03-04 18:11:00,32.7,20.0,29.99,SW,232,0.0,0.0,59,0.00,,CLR,0.01,VWS V14.01,2013-03-04 23:11:00,
2013-03-04 18:17:00,32.4,20.1,29.99,SW,232,0.0,0.0,60,0.00,,CLR,0.01,VWS V14.01,2013-03-04 23:17:00,
2013-03-04 18:22:00,32.2,19.5,29.99,SW,232,0.0,0.0,59,0.00,,CLR,0.01,VWS V14.01,2013-03-04 23:22:00,
2013-03-04 18:27:00,31.8,19.5,29.99,SW,232,0.0,0.0,60,0.00,,CLR,0.01,VWS V14.01,2013-03-04 23:27:00,
2013-03-04 18:32:00,31.5,20.0,30.00,SW,232,0.0,0.0,62,0.00,,CLR,0.01,VWS V14.01,2013-03-04 23:32:00,
2013-03-04 18:37:00,31.0,19.5,30.00,SW,232,0.0,0.0,62,0.00,,CLR,0.01,VWS V14.01,2013-03-04 23:37:00,
2013-03-04 18:42:00,30.6,19.5,30.00,SW,232,0.0,0.0,63,0.00,,CLR,0.01,VWS V14.01,2013-03-04 23:42:00,
2013-03-04 18:48:00,30.3,20.0,30.00,SW,232,0.0,0.0,65,0.00,,CLR,0.01,VWS V14.01,2013-03-04 23:48:00,
2013-03-04 18:54:00,29.8,19.5,30.00,SW,232,0.0,0.0,65,0.00,,CLR,0.01,VWS V14.01,2013-03-04 23:54:00,
2013-03-04 18:59:00,29.7,19.4,30.00,SW,232,0.0,0.0,65,0.00,,CLR,0.01,VWS V14.01,2013-03-04 23:59:00,
2013-03-04 19:05:00,29.4,19.1,30.00,SW,232,0.0,0.0,65,0.00,,CLR,0.01,VWS V14.01,2013-03-05 00:05:00,
2013-03-04 19:10:00,29.3,19.4,30.00,SW,232,0.0,0.0,66,0.00,,CLR,0.01,VWS V14.01,2013-03-05 00:10:00,
2013-03-04 19:16:00,29.0,19.1,30.00,SW,232,0.0,0.0,66,0.00,,CLR,0.01,VWS V14.01,2013-03-05 00:16:00,
2013-03-04 19:21:00,29.0,19.1,30.00,SW,232,0.0,0.0,66,0.00,,CLR,0.01,VWS V14.01,2013-03-05 00:21:00,
2013-03-04 19:26:00,28.8,18.9,30.00,SW,232,0.0,0.0,66,0.00,,CLR,0.01,VWS V14.01,2013-03-05 00:26:00,
2013-03-04 19:31:00,28.7,18.8,30.00,SW,232,0.0,0.0,66,0.00,,CLR,0.01,VWS V14.01,2013-03-05 00:31:00,
2013-03-04 19:37:00,28.4,18.9,30.00,SW,232,0.0,0.0,67,0.00,,CLR,0.01,VWS V14.01,2013-03-05 00:37:00,
2013-03-04 19:42:00,28.2,18.7,30.00,SW,232,0.0,0.0,67,0.00,,CLR,0.01,VWS V14.01,2013-03-05 00:42:00,
2013-03-04 19:48:00,28.2,19.7,30.00,SW,232,0.0,0.0,70,0.00,,CLR,0.01,VWS V14.01,2013-03-05 00:48:00,
2013-03-04 19:54:00,28.1,20.2,30.00,SW,232,0.0,0.0,72,0.00,,CLR,0.01,VWS V14.01,2013-03-05 00:54:00,
2013-03-04 19:59:00,27.9,20.7,30.00,SW,232,0.0,0.0,74,0.00,,CLR,0.01,VWS V14.01,2013-03-05 00:59:00,
2013-03-04 20:04:00,27.8,20.9,30.00,SW,232,0.0,0.0,75,0.00,,CLR,0.01,VWS V14.01,2013-03-05 01:04:00,
2013-03-04 20:09:00,27.6,21.0,30.00,SW,232,0.0,0.0,76,0.00,,CLR,0.01,VWS V14.01,2013-03-05 01:09:00,
2013-03-04 20:14:00,27.3,20.1,30.00,SW,232,0.0,0.0,74,0.00,,CLR,0.01,VWS V14.01,2013-03-05 01:14:00,
2013-03-04 20:19:00,27.2,20.0,30.00,SW,232,0.0,0.0,74,0.00,,CLR,0.01,VWS V14.01,2013-03-05 01:19:00,
2013-03-04 20:25:00,27.0,20.1,30.00,SW,232,0.0,0.0,75,0.00,,CLR,0.01,VWS V14.01,2013-03-05 01:25:00,
2013-03-04 20:30:00,26.9,20.4,30.00,SW,232,0.0,0.0,76,0.00,,CLR,0.01,VWS V14.01,2013-03-05 01:30:00,
2013-03-04 20:35:00,26.7,19.9,29.99,SW,232,0.0,0.0,75,0.00,,CLR,0.01,VWS V14.01,2013-03-05 01:35:00,
2013-03-04 20:40:00,26.6,19.8,29.99,SW,232,0.0,0.0,75,0.00,,CLR,0.01,VWS V14.01,2013-03-05 01:40:00,
2013-03-04 20:46:00,26.6,19.4,29.99,SW,232,0.0,0.0,74,0.00,,CLR,0.01,VWS V14.01,2013-03-05 01:46:00,
2013-03-04 20:51:00,26.4,19.2,29.99,SW,232,0.0,0.0,74,0.00,,CLR,0.01,VWS V14.01,2013-03-05 01:51:00,
2013-03-04 20:57:00,26.3,19.1,29.99,SW,232,0.0,0.0,74,0.00,,CLR,0.01,VWS V14.01,2013-03-05 01:57:00,
2013-03-04 21:02:00,26.1,19.0,30.00,SW,232,0.0,0.0,74,0.00,,CLR,0.01,VWS V14.01,2013-03-05 02:02:00,
2013-03-04 21:07:00,26.1,19.0,30.00,SW,232,0.0,0.0,74,0.00,,CLR,0.01,VWS V14.01,2013-03-05 02:07:00,
2013-03-04 21:12:00,26.1,19.3,30.00,SW,232,0.0,0.0,75,0.00,,CLR,0.01,VWS V14.01,2013-03-05 02:12:00,
2013-03-04 21:18:00,26.0,19.2,30.00,SW,232,0.0,0.0,75,0.00,,CLR,0.01,VWS V14.01,2013-03-05 02:18:00,
2013-03-04 21:24:00,25.8,19.0,30.00,SW,232,0.0,0.0,75,0.00,,CLR,0.01,VWS V14.01,2013-03-05 02:24:00,
2013-03-04 21:29:00,25.7,18.9,30.00,SW,232,0.0,0.0,75,0.00,,CLR,0.01,VWS V14.01,2013-03-05 02:29:00,
2013-03-04 21:34:00,25.7,18.9,30.00,SW,232,0.0,0.0,75,0.00,,CLR,0.01,VWS V14.01,2013-03-05 02:34:00,
2013-03-04 21:39:00,25.6,19.1,30.00,SW,232,0.0,0.0,76,0.00,,CLR,0.01,VWS V14.01,2013-03-05 02:39:00,
2013-03-04 21:45:00,25.6,19.1,30.00,SW,232,0.0,0.0,76,0.00,,CLR,0.01,VWS V14.01,2013-03-05 02:45:00,
2013-03-04 21:50:00,25.4,18.9,30.00,SW,232,0.0,0.0,76,0.00,,CLR,0.01,VWS V14.01,2013-03-05 02:50:00,
2013-03-04 21:56:00,25.4,18.9,30.00,SW,232,0.0,0.0,76,0.00,,CLR,0.01,VWS V14.01,2013-03-05 02:56:00,
2013-03-04 22:01:00,25.4,18.9,30.00,SW,232,0.0,0.0,76,0.00,,CLR,0.01,VWS V14.01,2013-03-05 03:01:00,
2013-03-04 22:07:00,25.3,19.1,30.00,SW,232,0.0,0.0,77,0.00,,CLR,0.01,VWS V14.01,2013-03-05 03:07:00,
2013-03-04 22:12:00,25.1,18.9,30.00,SW,232,0.0,0.0,77,0.00,,CLR,0.01,VWS V14.01,2013-03-05 03:12:00,
2013-03-04 22:17:00,25.0,18.8,30.00,SW,232,0.0,0.0,77,0.00,,CLR,0.01,VWS V14.01,2013-03-05 03:17:00,
2013-03-04 22:22:00,25.0,18.8,30.00,SW,232,0.0,0.0,77,0.00,,CLR,0.01,VWS V14.01,2013-03-05 03:22:00,
2013-03-04 22:28:00,25.0,18.8,30.00,SW,232,0.0,0.0,77,0.00,,CLR,0.01,VWS V14.01,2013-03-05 03:28:00,
2013-03-04 22:34:00,25.0,19.1,30.00,SW,232,0.0,0.0,78,0.00,,CLR,0.01,VWS V14.01,2013-03-05 03:34:00,
2013-03-04 22:39:00,25.0,19.1,30.00,SW,232,0.0,0.0,78,0.00,,CLR,0.01,VWS V14.01,2013-03-05 03:39:00,
2013-03-04 22:45:00,25.0,19.1,30.00,SW,232,0.0,0.0,78,0.00,,CLR,0.01,VWS V14.01,2013-03-05 03:45:00,
2013-03-04 22:50:00,24.8,19.2,30.00,SW,232,0.0,0.0,79,0.00,,CLR,0.01,VWS V14.01,2013-03-05 03:50:00,
2013-03-04 22:56:00,24.7,18.8,30.00,SW,232,0.0,0.0,78,0.00,,CLR,0.01,VWS V14.01,2013-03-05 03:56:00,
2013-03-04 23:01:00,24.7,18.8,30.00,SW,232,0.0,0.0,78,0.00,,CLR,0.01,VWS V14.01,2013-03-05 04:01:00,
2013-03-04 23:06:00,24.5,18.6,30.00,SW,232,0.0,0.0,78,0.00,,CLR,0.01,VWS V14.01,2013-03-05 04:06:00,
2013-03-04 23:11:00,24.4,18.8,30.00,SW,232,0.0,0.0,79,0.00,,CLR,0.01,VWS V14.01,2013-03-05 04:11:00,
2013-03-04 23:17:00,24.4,18.8,30.00,SW,232,0.0,0.0,79,0.00,,CLR,0.01,VWS V14.01,2013-03-05 04:17:00,
2013-03-04 23:22:00,24.2,18.6,30.00,SW,232,0.0,0.0,79,0.00,,CLR,0.01,VWS V14.01,2013-03-05 04:22:00,
2013-03-04 23:28:00,24.1,18.5,30.00,SW,232,0.0,0.0,79,0.00,,CLR,0.01,VWS V14.01,2013-03-05 04:28:00,
2013-03-04 23:34:00,24.1,18.5,30.00,SW,232,0.0,0.0,79,0.00,,CLR,0.01,VWS V14.01,2013-03-05 04:34:00,
2013-03-04 23:39:00,23.9,18.6,30.00,SW,232,0.0,0.0,80,0.00,,CLR,0.01,VWS V14.01,2013-03-05 04:39:00,
2013-03-04 23:45:00,23.9,18.6,30.00,SW,232,0.0,0.0,80,0.00,,CLR,0.01,VWS V14.01,2013-03-05 04:45:00,
2013-03-04 23:50:00,23.9,18.6,30.00,SW,232,0.0,0.0,80,0.00,,CLR,0.01,VWS V14.01,2013-03-05 04:50:00,
2013-03-04 23:55:00,23.9,18.6,30.00,SW,232,0.0,0.0,80,0.00,,CLR,0.01,VWS V14.01,2013-03-05 04:55:00,